Regional Weather Roundup
Issued by NWS

Home | Current Version | Previous Version | Graphics & Text | Print | Product List | Glossary On
Versions: 1 2 3 4 5 6 7 8 9 10 11 12 13 14 15 16 17 18 19 20 21 22 23 24 25 26 27 28 29 30 31 32 33 34 35 36 37 38 39 40 41 42 43 44 45 46 47 48 49 50
000
ASUS44 KMEG 050510
RWRTN
TENNESSEE HOURLY STATE WEATHER ROUNDUP
NATIONAL WEATHER SERVICE MEMPHIS TN
1200 AM CDT TUE MAY 05 2015

TNZ002-004-019-021-049-052-054-088>092-050600-
WEST TENNESSEE

CITY           SKY/WX    TMP DP  RH WIND       PRES   REMARKS
MEMPHIS INTL   CLEAR     72  56  57 S8        30.18R
NWS MEMPHIS      N/A     69 N/A N/A MISG        N/A
JACKSON        CLEAR     60  53  77 SE3       30.20R
DYERSBURG      CLEAR     66  43  42 SE5       30.20R
PARIS          CLEAR     63  48  59 S5        30.21R
LEXINGTON      CLEAR     59  54  82 CALM      30.21R
$$

TNZ008-025-027-028-033-062-065-066-050600-
NORTH MIDDLE TENNESSEE

CITY           SKY/WX    TMP DP  RH WIND       PRES   REMARKS
NASHVILLE      CLEAR     64  55  72 S3        30.23S
CLARKSVILLE    CLEAR     63  54  72 CALM      30.21R
SMYRNA         CLEAR     60  56  87 CALM      30.24S
COOKEVILLE     CLEAR     54  52  94 CALM      30.26S
CROSSVILLE     CLEAR     59  49  69 CALM      30.31R
$$

TNZ061-075-076-078-094-096-097-050600-
SOUTH MIDDLE TENNESSEE

CITY           SKY/WX    TMP DP  RH WIND       PRES   REMARKS
FAYETTEVILLE     N/A     63  52  67 CALM      30.26R
TULLAHOMA      CLEAR     55  52  88 CALM      30.27S
WINCHESTER     CLEAR     61  54  77 CALM      30.27S
MCMINNVILLE    CLEAR     57  55  94 CALM      30.27S
COLUMBIA       CLEAR     59  54  82 CALM      30.22S
SHELBYVILLE    CLEAR     59  55  88 E5        30.26S
$$

TNZ017-018-042-046-047-050600-
NORTHEAST TENNESSEE

CITY           SKY/WX    TMP DP  RH WIND       PRES   REMARKS
TRI CITIES     CLEAR     56  51  84 N3        30.30S
ELIZABETHTON   CLEAR     54  48  82 CALM      30.32S
$$

TNZ012-013-036-069-073-074-050600-
CENTRAL EAST TENNESSEE

CITY           SKY/WX    TMP DP  RH WIND       PRES   REMARKS
KNOXVILLE      NOT AVBL
OAK RIDGE      CLEAR     59  53  80 CALM      30.29R
GATLINBURG     MOCLDY    57  52  82 CALM      30.28S
MORRISTOWN     CLEAR     63  52  67 SW3       30.30R
$$

TNZ083-085-099-050600-
SOUTHEAST TENNESSEE

CITY           SKY/WX    TMP DP  RH WIND       PRES   REMARKS
CHATTANOOGA    CLEAR     61  55  81 CALM      30.27R
$$

SKY/WX REPORTED AS FAIR MEANS FEW OR NO CLOUDS BELOW
12 THOUSAND FEET.




USA.gov is the U.S. government's official web portal to all federal, state and local government web resources and services.